Weather History for KHFD - April, 2013

Change the Weather History Date:

Monday, April 8, 2013

  Actual Average Record
Temperature  
Mean Temperature 54 °F -  
Max Temperature 70 °F 55 °F 88 °F (1991)
Min Temperature 39 °F 33 °F 15 °F (1982)
Degree Days  
Heating Degree Days 11    
Growing Degree Days 4 (Base 50)    
Moisture  
Dew Point 39 °F    
Average Humidity 65    
Maximum Humidity 100    
Minimum Humidity 27    
Precipitation  
Precipitation 0.00 in - - ()
Sea Level Pressure  
Sea Level Pressure 30.03 in    
Wind  
Wind Speed 3 mph (South)    
Max Wind Speed 8 mph    
Max Gust Speed -    
Visibility 9 miles    
Events      
Averages and records for this station are not official NWS values.
T = Trace of Precipitation, MM = Missing Value Source: NWS Daily Summary

Daily Weather History Graph

Daily Weather History Graph

Search for Another Location

Airport or City:

Trip Planner

Search our weather history database for the weather conditions in past years. The results will help you decide how hot, cold, wet, or windy it might be!

Date:

Astronomy

Apr. 08, 2013 Rise Set
Actual Time 6:21 AM EDT 7:23 PM EDT
Civil Twilight 5:53 AM EDT 7:52 PM EDT
Nautical Twilight 5:19 AM EDT 8:26 PM EDT
Astronomical Twilight 4:43 AM EDT 9:01 PM EDT
Moon 5:11 AM EDT (4/8) 5:54 PM EDT (4/8)
Length of Visible Light 13h 59m
Length of Day
13h 02m
Waning Crescent, 3% of the Moon is Illuminated
Apr 8
Waning Crescent
Apr 10
New
Apr 18
First Quarter
Apr 25
Full
May 2
Last Quarter

Hourly Weather History & Observations

Time (EDT) Temp. Windchill Dew Point Humidity Pressure Visibility Wind Dir Wind Speed Gust Speed Precip Events Conditions
12:53 AM 46.0 °F 43.1 °F 43.0 °F 89% 30.01 in 10.0 mi South 5.8 mph - N/A   Partly Cloudy
1:53 AM 46.0 °F 43.1 °F 42.1 °F 86% 30.00 in 10.0 mi South 5.8 mph - N/A   Clear
2:53 AM 45.0 °F 42.6 °F 42.1 °F 90% 29.99 in 10.0 mi South 4.6 mph - N/A   Clear
3:53 AM 44.1 °F 40.8 °F 42.1 °F 93% 29.98 in 8.0 mi South 5.8 mph - N/A   Clear
4:53 AM 44.1 °F - 42.1 °F 93% 29.99 in 8.0 mi Calm Calm - N/A   Scattered Clouds
5:53 AM 41.0 °F - 39.9 °F 96% 30.01 in 6.0 mi Calm Calm - N/A   Clear
6:19 AM 39.2 °F - 39.2 °F 100% 30.01 in 6.0 mi Calm Calm - N/A   Scattered Clouds
6:53 AM 42.1 °F - 41.0 °F 96% 30.03 in 6.0 mi Calm Calm - N/A   Partly Cloudy
6:57 AM 39.2 °F - 39.2 °F 100% 30.03 in 1.0 mi Calm Calm - N/A   Mist
6:59 AM 39.2 °F - 39.2 °F 100% 30.03 in 6.0 mi Calm Calm - N/A   Partly Cloudy
7:53 AM 44.1 °F - 43.0 °F 96% 30.05 in 6.0 mi Calm Calm - N/A   Clear
8:53 AM 48.0 °F - 43.0 °F 83% 30.05 in 6.0 mi Calm Calm - N/A   Clear
9:53 AM 53.1 °F - 37.9 °F 57% 30.07 in 10.0 mi Variable 6.9 mph - N/A   Clear
10:53 AM 55.9 °F - 37.9 °F 51% 30.08 in 10.0 mi NNW 6.9 mph - N/A   Clear
11:53 AM 57.9 °F - 37.0 °F 46% 30.07 in 10.0 mi North 8.1 mph - N/A   Clear
12:53 PM 61.0 °F - 36.0 °F 39% 30.07 in 10.0 mi NNW 5.8 mph - N/A   Clear
1:53 PM 64.0 °F - 37.0 °F 37% 30.05 in 10.0 mi Calm Calm - N/A   Clear
2:53 PM 66.9 °F - 34.0 °F 30% 30.03 in 10.0 mi Variable 4.6 mph - N/A   Clear
3:53 PM 68.0 °F - 33.1 °F 27% 30.01 in 10.0 mi Variable 3.5 mph - N/A   Clear
4:53 PM 69.1 °F - 34.0 °F 27% 30.01 in 10.0 mi Calm Calm - N/A   Clear
5:53 PM 68.0 °F - 34.0 °F 28% 30.01 in 10.0 mi Calm Calm - N/A   Clear
6:53 PM 66.9 °F - 34.0 °F 30% 30.02 in 10.0 mi Calm Calm - N/A   Clear
7:53 PM 61.0 °F - 37.9 °F 42% 30.03 in 10.0 mi South 4.6 mph - N/A   Clear
8:53 PM 61.0 °F - 39.9 °F 46% 30.04 in 10.0 mi South 4.6 mph - N/A   Clear
9:53 PM 59.0 °F - 39.9 °F 49% 30.06 in 10.0 mi South 6.9 mph - N/A   Mostly Cloudy
10:53 PM 57.0 °F - 42.1 °F 57% 30.04 in 10.0 mi SSE 3.5 mph - N/A   Scattered Clouds
11:53 PM 55.9 °F - 43.0 °F 62% 30.03 in 10.0 mi South 4.6 mph - N/A   Mostly Cloudy